LFKCLFKJ

Guest
Details From LFKC - St Catherine
To LFKJ - Napoleon Bonaparte
Flight Number -
Tags generated
Created
Modified
Stats Distance 37 nm / 68 km
Max Altitude 2,700 ft / 823 m
Waypoints 3
Social Downloads 1
Likes 0
Share VATSIM

Download

Looking for another format? Having issues loading an existing format? Contact us
Advertisement - Login to hide

Notes

Basic altitude profile: - Ascent Rate: 500ft/min - Ascent Speed: 80kts - Cruise Altitude: 3000ft - Cruise Speed: 110kts - Descent Rate: 500ft/min - Descent Speed: 60kts Options: - Use NATs: no - Use PACOTS: no - Use low airways: yes - Use high airways: no

Route

LFKC VICCO LFKJ

ID Type Via Altitude (ft/m) Position (lat/lon) Dist (leg/tot) Name
O LFKC APT - 0 / 0 42.53076 / 8.79292 - / 0 nm St Catherine
VICCO FIX - 2,700 / 823 42.13944 / 8.81583 23 / 23 nm
O LFKJ APT - 0 / 0 41.92289 / 8.79959 13 / 36 nm Napoleon Bonaparte

Altitude Profile

Advertisement - Login to hide

LFKC

Details ICAO LFKC (CLY)
Name St Catherine
Region France
Timezone Europe/Paris (UTC+1.0)
Stats Elevation 208 ft / 63 m (AMSL)
Location 42.530800° 8.792980°
Runways 1
Magnetic Variation 2.460° E

METAR

LFKC 160800Z AUTO 19004KT CAVOK 05/01 Q1021 NOSIG

Decode

TAF

TAF LFKC 160200Z 1603/1703 20004KT CAVOK TX16/1613Z TN03/1604Z BECMG 1608/1610 24006KT SCT033

Decode

Departure Runways

ID Width Length Bearing (true/mag) Surface Threshold Overrun Markings Lighting
18 131 ft / 40 m 7,586 ft / 2,312 m 179.81° / 177.35° CONCRETE 0 ft / 0 m 0 ft / 0 m APP CENTERLINE EDGE THRESHOLD
36 131 ft / 40 m 7,586 ft / 2,312 m 359.81° / 357.35° CONCRETE 663 ft / 202 m 0 ft / 0 m APP CENTERLINE EDGE THRESHOLD ALSF-I

LFKJ

Details ICAO LFKJ (AJA)
Name Napoleon Bonaparte
Region France
Timezone Europe/Paris (UTC+1.0)
Stats Elevation 19 ft / 6 m (AMSL)
Location 41.921700° 8.801090°
Runways 1
Magnetic Variation 2.447° E

METAR

LFKJ 160800Z AUTO 03007KT CAVOK 05/00 Q1022 NOSIG

Decode

TAF

TAF LFKJ 160200Z 1603/1703 04005KT CAVOK BECMG 1609/1612 12006KT BKN033 BECMG 1618/1621 05005KT

Decode

Destination Runways

ID Width Length Bearing (true/mag) Surface Threshold Overrun Markings Lighting
02 148 ft / 45 m 7,904 ft / 2,409 m 24.84° / 22.39° CONCRETE 0 ft / 0 m 161 ft / 49 m PREC-APP CENTERLINE EDGE THRESHOLD REIL-OMNI
20 148 ft / 45 m 7,904 ft / 2,409 m 204.85° / 202.40° CONCRETE 741 ft / 226 m 230 ft / 70 m PREC-APP CENTERLINE EDGE THRESHOLD REIL-OMNI

Approach Navaids

Runway Type Ident Frequency Range Bearing (true/mag) Slope Elevation
02 GS AC 110.30 MHz 27 nm / 50 km 24.85° / 22.40 ° 3.00° 19 ft / 6 m (AMSL)
02 DME AC 110.30 MHz 27 nm / 50 km - - 18 ft / 5 m (AMSL)
02 OM OM - - 24.94° / 22.50 ° - 17 ft / 5 m (AMSL)
02 LOC-ILS AC 110.30 MHz 27 nm / 50 km 24.85° / 22.40 ° - 19 ft / 6 m (AMSL)

Popular Alternatives